Time,TemperatureF,DewpointF,PressureIn,WindDirection,WindDirectionDegrees,WindSpeedMPH,WindSpeedGustMPH,Humidity,HourlyPrecipIn,Conditions,Clouds,dailyrainin,SolarRadiationWatts/m^2,SoftwareType,DateUTC
2013-01-19 00:10:00,28.1,23.9,30.44,SSW,205,0.0,0.0,84,0.00,,,0.00,0,Wunderground v.1.15,2013-01-19 05:10:00,
2013-01-19 00:20:00,28.5,24.3,30.43,SSW,205,0.0,0.0,84,0.00,,,0.00,0,Wunderground v.1.15,2013-01-19 05:20:00,
2013-01-19 00:30:00,28.7,23.9,30.44,West,273,0.0,0.0,82,0.00,,,0.00,0,Wunderground v.1.15,2013-01-19 05:30:00,
2013-01-19 00:40:00,28.8,24.0,30.43,WNW,303,1.0,2.0,82,0.00,,,0.00,0,Wunderground v.1.15,2013-01-19 05:40:00,
2013-01-19 00:50:00,29.0,24.2,30.43,WNW,303,0.0,0.0,82,0.00,,,0.00,0,Wunderground v.1.15,2013-01-19 05:50:00,
2013-01-19 01:00:00,29.0,23.9,30.43,NNE,12,0.0,0.0,81,0.00,,,0.00,0,Wunderground v.1.15,2013-01-19 06:00:00,
2013-01-19 01:10:00,29.0,23.6,30.42,North,11,0.0,0.0,80,0.00,,,0.00,0,Wunderground v.1.15,2013-01-19 06:10:00,
2013-01-19 01:20:00,28.8,24.0,30.42,North,11,0.0,0.0,82,0.00,,,0.00,0,Wunderground v.1.15,2013-01-19 06:20:00,
2013-01-19 01:29:00,28.5,23.7,30.42,North,11,0.0,0.0,82,0.00,,,0.00,0,Wunderground v.1.15,2013-01-19 06:29:00,
2013-01-19 01:40:00,28.4,23.0,30.42,North,10,0.0,0.0,80,0.00,,,0.00,0,Wunderground v.1.15,2013-01-19 06:40:00,
2013-01-19 01:50:00,28.4,23.0,30.41,North,10,0.0,0.0,80,0.00,,,0.00,0,Wunderground v.1.15,2013-01-19 06:50:00,
2013-01-19 02:00:00,28.3,23.2,30.41,North,11,0.0,0.0,81,0.00,,,0.00,0,Wunderground v.1.15,2013-01-19 07:00:00,
2013-01-19 02:10:00,28.1,23.0,30.42,North,10,0.0,0.0,81,0.00,,,0.00,0,Wunderground v.1.15,2013-01-19 07:10:00,
2013-01-19 02:20:00,28.0,22.9,30.41,North,11,0.0,0.0,81,0.00,,,0.00,0,Wunderground v.1.15,2013-01-19 07:20:00,
2013-01-19 02:29:00,27.8,23.0,30.41,North,11,0.0,0.0,82,0.00,,,0.00,0,Wunderground v.1.15,2013-01-19 07:29:00,
2013-01-19 02:40:00,27.5,22.7,30.41,North,11,0.0,0.0,82,0.00,,,0.00,0,Wunderground v.1.15,2013-01-19 07:40:00,
2013-01-19 02:50:00,27.5,23.0,30.41,North,10,1.0,1.0,83,0.00,,,0.00,0,Wunderground v.1.15,2013-01-19 07:50:00,
2013-01-19 03:00:00,27.5,22.7,30.41,North,11,0.0,0.0,82,0.00,,,0.00,0,Wunderground v.1.15,2013-01-19 08:00:00,
2013-01-19 03:10:00,27.5,22.7,30.41,North,11,0.0,0.0,82,0.00,,,0.00,0,Wunderground v.1.15,2013-01-19 08:10:00,
2013-01-19 03:20:00,27.8,22.7,30.41,North,11,0.0,0.0,81,0.00,,,0.00,0,Wunderground v.1.15,2013-01-19 08:20:00,
2013-01-19 03:30:00,28.2,23.1,30.40,North,11,0.0,0.0,81,0.00,,,0.00,0,Wunderground v.1.15,2013-01-19 08:30:00,
2013-01-19 03:40:00,28.3,23.2,30.40,North,11,0.0,0.0,81,0.00,,,0.00,0,Wunderground v.1.15,2013-01-19 08:40:00,
2013-01-19 03:49:00,28.3,23.2,30.40,North,11,0.0,0.0,81,0.00,,,0.00,0,Wunderground v.1.15,2013-01-19 08:49:00,
2013-01-19 04:00:00,28.3,23.5,30.40,North,11,0.0,0.0,82,0.00,,,0.00,0,Wunderground v.1.15,2013-01-19 09:00:00,
2013-01-19 04:09:00,28.1,22.4,30.40,NNE,18,0.0,0.0,79,0.00,,,0.00,0,Wunderground v.1.15,2013-01-19 09:09:00,
2013-01-19 04:19:00,28.3,22.3,30.40,SSE,152,1.0,1.0,78,0.00,,,0.00,0,Wunderground v.1.15,2013-01-19 09:19:00,
2013-01-19 04:30:00,28.6,22.6,30.40,SSE,153,0.0,0.0,78,0.00,,,0.00,0,Wunderground v.1.15,2013-01-19 09:30:00,
2013-01-19 04:39:00,28.6,22.6,30.40,SSE,152,0.0,0.0,78,0.00,,,0.00,0,Wunderground v.1.15,2013-01-19 09:39:00,
2013-01-19 04:49:00,28.7,22.7,30.40,SSE,153,0.0,0.0,78,0.00,,,0.00,0,Wunderground v.1.15,2013-01-19 09:49:00,
2013-01-19 04:59:00,28.5,22.8,30.39,SSE,153,0.0,0.0,79,0.00,,,0.00,0,Wunderground v.1.15,2013-01-19 09:59:00,
2013-01-19 05:09:00,28.2,22.8,30.39,SSE,153,0.0,0.0,80,0.00,,,0.00,0,Wunderground v.1.15,2013-01-19 10:09:00,
2013-01-19 05:19:00,27.8,22.7,30.39,SSE,153,0.0,0.0,81,0.00,,,0.00,0,Wunderground v.1.15,2013-01-19 10:19:00,
2013-01-19 05:29:00,27.6,22.5,30.39,SSE,152,0.0,0.0,81,0.00,,,0.00,0,Wunderground v.1.15,2013-01-19 10:29:00,
2013-01-19 05:39:00,27.5,22.4,30.39,SSE,152,0.0,0.0,81,0.00,,,0.00,0,Wunderground v.1.15,2013-01-19 10:39:00,
2013-01-19 05:49:00,27.4,22.3,30.40,NW,314,0.0,0.0,81,0.00,,,0.00,0,Wunderground v.1.15,2013-01-19 10:49:00,
2013-01-19 05:59:00,27.4,22.0,30.40,WNW,299,0.0,0.0,80,0.00,,,0.00,0,Wunderground v.1.15,2013-01-19 10:59:00,
2013-01-19 06:09:00,27.6,22.2,30.40,WNW,299,0.0,0.0,80,0.00,,,0.00,0,Wunderground v.1.15,2013-01-19 11:09:00,
2013-01-19 07:49:00,26.6,22.1,30.38,NW,312,0.0,0.0,83,0.00,,,0.00,5,Wunderground v.1.15,2013-01-19 12:49:00,
2013-01-19 07:59:00,26.8,22.6,30.38,NW,312,0.0,0.0,84,0.00,,,0.00,9,Wunderground v.1.15,2013-01-19 12:59:00,
2013-01-19 08:09:00,26.7,22.5,30.39,NW,312,0.0,0.0,84,0.00,,,0.00,11,Wunderground v.1.15,2013-01-19 13:09:00,
2013-01-19 08:19:00,26.6,22.7,30.38,NW,312,0.0,0.0,85,0.00,,,0.00,12,Wunderground v.1.15,2013-01-19 13:19:00,
2013-01-19 08:29:00,26.6,22.7,30.38,NW,311,0.0,0.0,85,0.00,,,0.00,12,Wunderground v.1.15,2013-01-19 13:29:00,
2013-01-19 08:39:00,26.8,22.9,30.38,NW,312,0.0,0.0,85,0.00,,,0.00,14,Wunderground v.1.15,2013-01-19 13:39:00,
2013-01-19 08:49:00,27.4,23.2,30.38,NW,312,0.0,0.0,84,0.00,,,0.00,16,Wunderground v.1.15,2013-01-19 13:49:00,
2013-01-19 08:59:00,28.0,23.5,30.38,NW,311,0.0,0.0,83,0.00,,,0.00,18,Wunderground v.1.15,2013-01-19 13:59:00,
2013-01-19 09:09:00,28.5,23.7,30.38,NW,311,0.0,0.0,82,0.00,,,0.00,19,Wunderground v.1.15,2013-01-19 14:09:00,
2013-01-19 09:19:00,29.1,24.3,30.38,NW,312,0.0,0.0,82,0.00,,,0.00,21,Wunderground v.1.15,2013-01-19 14:19:00,
2013-01-19 09:29:00,29.7,24.6,30.38,NW,312,0.0,0.0,81,0.00,,,0.00,21,Wunderground v.1.15,2013-01-19 14:29:00,
2013-01-19 09:39:00,30.5,24.8,30.38,NW,312,0.0,0.0,79,0.00,,,0.00,25,Wunderground v.1.15,2013-01-19 14:39:00,
2013-01-19 09:49:00,31.4,25.9,30.38,NW,311,0.0,0.0,80,0.00,,,0.00,28,Wunderground v.1.15,2013-01-19 14:49:00,
2013-01-19 09:59:00,32.2,26.4,30.38,NW,311,0.0,0.0,79,0.00,,,0.00,26,Wunderground v.1.15,2013-01-19 14:59:00,
2013-01-19 10:09:00,33.0,26.9,30.38,NW,312,0.0,0.0,78,0.00,,,0.00,28,Wunderground v.1.15,2013-01-19 15:09:00,
2013-01-19 10:18:00,33.8,27.4,30.38,NW,313,0.0,0.0,77,0.00,,,0.00,30,Wunderground v.1.15,2013-01-19 15:18:00,
2013-01-19 10:29:00,34.4,27.6,30.37,NW,313,0.0,0.0,76,0.00,,,0.00,32,Wunderground v.1.15,2013-01-19 15:29:00,
2013-01-19 10:39:00,34.8,28.3,30.37,NW,313,0.0,0.0,77,0.00,,,0.00,33,Wunderground v.1.15,2013-01-19 15:39:00,
2013-01-19 10:49:00,35.2,28.1,30.37,NW,313,0.0,0.0,75,0.00,,,0.00,35,Wunderground v.1.15,2013-01-19 15:49:00,
2013-01-19 10:59:00,35.7,28.2,30.36,NW,313,0.0,0.0,74,0.00,,,0.00,39,Wunderground v.1.15,2013-01-19 15:59:00,
2013-01-19 11:09:00,36.1,27.9,30.35,NW,313,0.0,0.0,72,0.00,,,0.00,40,Wunderground v.1.15,2013-01-19 16:09:00,
2013-01-19 11:19:00,36.6,28.1,30.35,NW,313,0.0,0.0,71,0.00,,,0.00,42,Wunderground v.1.15,2013-01-19 16:19:00,
2013-01-19 11:28:00,37.4,27.4,30.34,NW,325,0.0,0.0,67,0.00,,,0.00,47,Wunderground v.1.15,2013-01-19 16:28:00,
2013-01-19 11:38:00,38.3,28.7,30.33,NW,325,0.0,0.0,68,0.00,,,0.00,51,Wunderground v.1.15,2013-01-19 16:38:00,
2013-01-19 11:49:00,39.7,29.6,30.32,NW,325,0.0,0.0,67,0.00,,,0.00,51,Wunderground v.1.15,2013-01-19 16:49:00,
2013-01-19 11:58:00,41.3,31.5,30.31,NW,325,0.0,0.0,68,0.00,,,0.00,49,Wunderground v.1.15,2013-01-19 16:58:00,
2013-01-19 12:08:00,42.5,31.6,30.30,WNW,283,0.0,1.0,65,0.00,,,0.01,46,Wunderground v.1.15,2013-01-19 17:08:00,
2013-01-19 12:28:00,45.3,32.2,30.28,SW,229,0.0,0.0,60,0.08,,,0.03,53,Wunderground v.1.15,2013-01-19 17:28:00,
2013-01-19 12:38:00,46.4,32.8,30.27,West,261,1.0,3.0,59,0.13,,,0.06,62,Wunderground v.1.15,2013-01-19 17:38:00,
2013-01-19 12:48:00,46.7,32.3,30.26,SW,226,1.0,1.0,57,0.14,,,0.08,93,Wunderground v.1.15,2013-01-19 17:48:00,
2013-01-19 12:58:00,46.9,32.4,30.26,South,191,1.0,1.0,57,0.18,,,0.11,557,Wunderground v.1.15,2013-01-19 17:58:00,
2013-01-19 13:08:00,47.2,33.2,30.25,SW,216,1.0,1.0,58,0.18,,,0.14,547,Wunderground v.1.15,2013-01-19 18:08:00,
2013-01-19 13:18:00,46.8,33.6,30.25,South,190,1.0,1.0,60,0.18,,,0.16,564,Wunderground v.1.15,2013-01-19 18:18:00,
2013-01-19 13:39:00,46.8,33.6,30.24,SW,223,0.0,1.0,60,0.15,,,0.22,571,Wunderground v.1.15,2013-01-19 18:39:00,
2013-01-19 13:49:00,47.5,33.9,30.23,WNW,290,1.0,1.0,59,0.14,,,0.25,554,Wunderground v.1.15,2013-01-19 18:49:00,
2013-01-19 13:59:00,47.5,33.9,30.23,South,190,0.0,0.0,59,0.13,,,0.27,552,Wunderground v.1.15,2013-01-19 18:59:00,
2013-01-19 14:09:00,47.7,34.1,30.22,SSW,205,0.0,0.0,59,0.12,,,0.29,538,Wunderground v.1.15,2013-01-19 19:09:00,
2013-01-19 14:49:00,47.7,33.2,30.20,NNW,331,1.0,1.0,57,0.08,,,0.35,469,Wunderground v.1.15,2013-01-19 19:49:00,
2013-01-19 14:59:00,48.1,33.6,30.20,South,179,0.0,0.0,57,0.06,,,0.35,446,Wunderground v.1.15,2013-01-19 19:59:00,
2013-01-19 15:09:00,48.4,33.0,30.19,South,184,0.0,0.0,55,0.07,,,0.37,429,Wunderground v.1.15,2013-01-19 20:09:00,
2013-01-19 15:19:00,48.1,32.7,30.19,WSW,258,1.0,1.0,55,0.07,,,0.38,403,Wunderground v.1.15,2013-01-19 20:19:00,
2013-01-19 15:29:00,47.5,32.1,30.19,SW,227,1.0,1.0,55,0.05,,,0.39,376,Wunderground v.1.15,2013-01-19 20:29:00,
2013-01-19 15:59:00,46.8,32.8,30.18,SSW,202,0.0,0.0,58,0.04,,,0.41,116,Wunderground v.1.15,2013-01-19 20:59:00,
2013-01-19 16:09:00,46.5,32.9,30.18,SSW,202,0.0,0.0,59,0.04,,,0.41,107,Wunderground v.1.15,2013-01-19 21:09:00,
2013-01-19 16:19:00,45.9,32.4,30.18,SW,219,0.0,0.0,59,0.00,,,0.41,88,Wunderground v.1.15,2013-01-19 21:19:00,
2013-01-19 17:50:00,40.7,29.8,30.17,SSW,194,0.0,0.0,65,0.00,,,0.42,0,Wunderground v.1.15,2013-01-19 22:50:00,
2013-01-19 17:59:00,39.7,28.1,30.17,SSW,194,0.0,0.0,63,0.00,,,0.42,0,Wunderground v.1.15,2013-01-19 22:59:00,
2013-01-19 18:20:00,38.5,28.9,30.17,South,180,0.0,0.0,68,0.00,,,0.43,0,Wunderground v.1.15,2013-01-19 23:20:00,
2013-01-19 18:39:00,37.7,27.7,30.17,SSE,165,0.0,0.0,67,0.00,,,0.43,0,Wunderground v.1.15,2013-01-19 23:39:00,
2013-01-19 18:49:00,37.7,28.1,30.17,SSE,165,0.0,0.0,68,0.00,,,0.43,0,Wunderground v.1.15,2013-01-19 23:49:00,
2013-01-19 18:59:00,37.7,28.4,30.17,SSE,165,0.0,0.0,69,0.00,,,0.43,0,Wunderground v.1.15,2013-01-19 23:59:00,
2013-01-19 19:09:00,37.7,28.1,30.17,SSE,167,0.0,0.0,68,0.00,,,0.43,0,Wunderground v.1.15,2013-01-20 00:09:00,
2013-01-19 19:19:00,37.6,28.7,30.17,SSE,165,0.0,0.0,70,0.00,,,0.43,0,Wunderground v.1.15,2013-01-20 00:19:00,
2013-01-19 19:29:00,37.5,27.9,30.17,SSE,164,0.0,0.0,68,0.00,,,0.43,0,Wunderground v.1.15,2013-01-20 00:29:00,
2013-01-19 19:49:00,37.9,28.3,30.17,North,350,0.0,0.0,68,0.00,,,0.43,0,Wunderground v.1.15,2013-01-20 00:49:00,
2013-01-19 19:59:00,37.8,27.8,30.17,West,268,0.0,5.0,67,0.00,,,0.43,0,Wunderground v.1.15,2013-01-20 00:59:00,
2013-01-19 20:09:00,38.0,28.0,30.16,West,269,0.0,1.0,67,0.00,,,0.43,0,Wunderground v.1.15,2013-01-20 01:09:00,
2013-01-19 20:19:00,38.0,27.6,30.16,NNW,329,1.0,2.0,66,0.00,,,0.43,0,Wunderground v.1.15,2013-01-20 01:19:00,
2013-01-19 20:29:00,37.9,27.5,30.16,SSW,209,0.0,1.0,66,0.00,,,0.43,0,Wunderground v.1.15,2013-01-20 01:29:00,
2013-01-19 20:39:00,37.8,27.8,30.16,NNW,339,0.0,0.0,67,0.00,,,0.43,0,Wunderground v.1.15,2013-01-20 01:39:00,
2013-01-19 20:59:00,36.6,27.7,30.15,NNW,338,0.0,2.0,70,0.00,,,0.43,0,Wunderground v.1.15,2013-01-20 01:59:00,
2013-01-19 21:09:00,36.2,27.7,30.15,NNW,340,0.0,0.0,71,0.00,,,0.43,0,Wunderground v.1.15,2013-01-20 02:09:00,
2013-01-19 21:19:00,36.1,27.6,30.14,WNW,287,0.0,0.0,71,0.00,,,0.43,0,Wunderground v.1.15,2013-01-20 02:19:00,
2013-01-19 21:29:00,36.2,27.7,30.13,WNW,287,0.0,0.0,71,0.00,,,0.43,0,Wunderground v.1.15,2013-01-20 02:29:00,
2013-01-19 21:39:00,36.1,27.6,30.13,WNW,287,0.0,0.0,71,0.00,,,0.43,0,Wunderground v.1.15,2013-01-20 02:39:00,
2013-01-19 21:49:00,35.7,27.9,30.13,WNW,287,0.0,0.0,73,0.00,,,0.43,0,Wunderground v.1.15,2013-01-20 02:49:00,
2013-01-19 21:59:00,35.6,27.8,30.12,WNW,294,0.0,0.0,73,0.00,,,0.43,0,Wunderground v.1.15,2013-01-20 02:59:00,
2013-01-19 22:09:00,35.6,26.8,30.11,WNW,294,0.0,0.0,70,0.00,,,0.43,0,Wunderground v.1.15,2013-01-20 03:09:00,
2013-01-19 22:19:00,35.9,28.1,30.11,WNW,294,0.0,0.0,73,0.00,,,0.43,0,Wunderground v.1.15,2013-01-20 03:19:00,
2013-01-19 22:29:00,35.6,28.1,30.11,WNW,294,0.0,0.0,74,0.00,,,0.43,0,Wunderground v.1.15,2013-01-20 03:29:00,
2013-01-19 22:39:00,35.4,28.3,30.11,WNW,294,0.0,0.0,75,0.00,,,0.43,0,Wunderground v.1.15,2013-01-20 03:39:00,
2013-01-19 22:49:00,35.3,27.8,30.11,WNW,294,0.0,0.0,74,0.00,,,0.43,0,Wunderground v.1.15,2013-01-20 03:49:00,
2013-01-19 22:59:00,36.0,25.0,30.10,NNE,24,0.0,1.0,64,0.00,,,0.43,0,Wunderground v.1.15,2013-01-20 03:59:00,
2013-01-19 23:09:00,37.8,23.5,30.10,NNW,327,2.0,3.0,56,0.00,,,0.43,0,Wunderground v.1.15,2013-01-20 04:09:00,
2013-01-19 23:19:00,40.4,23.2,30.09,NW,326,4.0,4.0,50,0.00,,,0.43,0,Wunderground v.1.15,2013-01-20 04:19:00,
2013-01-19 23:29:00,41.7,21.9,30.09,NNW,342,4.0,9.0,45,0.00,,,0.43,0,Wunderground v.1.15,2013-01-20 04:29:00,
2013-01-19 23:39:00,42.3,23.0,30.08,NNW,329,4.0,7.0,46,0.00,,,0.43,0,Wunderground v.1.15,2013-01-20 04:39:00,
2013-01-19 23:49:00,42.3,21.4,30.08,NNW,327,3.0,4.0,43,0.00,,,0.43,0,Wunderground v.1.15,2013-01-20 04:49:00,
2013-01-19 23:59:00,42.5,21.0,30.08,West,265,3.0,4.0,42,0.00,,,0.43,0,Wunderground v.1.15,2013-01-20 04:59:00,